Location: Mentone
(34.5413°N, 85.5351°W)
Time: 10:57:19
(UTC-05:00)

ADEOS Rocket - Visible Passes

Search period start: 30 June 2016 00:00
Search period end: 10 July 2016 00:00
Orbit: 858 x 1308 km, 98.7° (Epoch: 30 June)

Date Brightness Start Highest point End Pass type
(mag) Time Alt. Az. Time Alt. Az. Time Alt. Az.
30 Jun 4.0 04:49:54 10° NNE 04:55:13 44° E 05:00:53 10° S visible
01 Jul 5.4 04:02:43 10° ENE 04:06:02 16° E 04:09:28 10° SE visible
02 Jul 3.7 04:57:23 10° NNE 05:02:52 53° E 05:08:47 10° S visible
03 Jul 5.2 04:09:44 10° NE 04:13:45 19° E 04:17:58 10° SE visible
04 Jul 3.4 05:04:54 10° NNE 05:10:32 64° ESE 05:16:38 10° S visible
05 Jul 5.0 04:16:55 10° NE 04:21:27 24° E 04:26:16 10° SSE visible
07 Jul 4.8 04:24:12 10° NE 04:29:09 29° E 04:34:28 10° SSE visible
09 Jul 4.5 04:31:33 10° NE 04:36:51 34° E 04:42:35 10° SSE visible
